This demonstration page uses our WeatherBlox Daily Observations layout. Learn more.

Left ArrowRight Arrow

Hourly Observations for May 4, 2017

Temp ( °F °C ) Dew Point ( °F °C ) Humidity (%) Winds ( mph kmh ) Pressure ( in mb ) Visibility ( mi km ) Precip ( " mm )
12:15 am 00:15 Partly Cloudy 42 5.7 38 3.5 86 86 NW 6 9 30.21 1023 10 16 N/A
12:35 am 00:35 Clear 42 5.5 38 3.2 85 85 WNW 7 11 30.21 1023 10 16 N/A
12:55 am 00:55 Clear 41 4.8 37 2.9 88 88 WNW 7 11 30.21 1023 10 16 N/A
1:15 am 01:15 Clear 40 4.5 37 2.8 89 89 WNW 6 9 30.21 1023 10 16 N/A
1:35 am 01:35 Clear 40 4.7 37 3 89 89 WNW 7 11 30.21 1023 10 16 N/A
1:55 am 01:55 Clear 42 5.5 38 3.4 87 87 WNW 8 13 30.21 1023 10 16 N/A
2:15 am 02:15 Clear 42 5.3 38 3.3 87 87 WNW 7 11 30.21 1023 10 16 N/A
2:35 am 02:35 Clear 41 4.9 37 3 88 88 WNW 6 9 30.21 1023 10 16 N/A
2:55 am 02:55 Clear 40 4.7 37 2.7 87 87 WNW 6 9 30.18 1022 10 16 N/A
3:15 am 03:15 Clear 40 4.6 36 2.4 86 86 WNW 7 11 30.18 1022 10 16 N/A
3:35 am 03:35 Clear 40 4.6 36 2.1 84 84 WNW 7 11 30.18 1022 10 16 N/A
3:55 am 03:55 Clear 40 4.5 35 1.8 83 83 WNW 8 13 30.18 1022 10 16 N/A
4:15 am 04:15 Clear 40 4.2 35 1.9 85 85 WNW 7 11 30.18 1022 10 16 N/A
4:35 am 04:35 Clear 39 3.7 35 1.5 86 86 WNW 7 11 30.21 1023 10 16 N/A
4:55 am 04:55 Clear 40 4.2 35 1.5 83 83 WNW 6 9 30.18 1022 10 16 N/A
5:15 am 05:15 Clear 39 4.1 34 1.3 82 82 WNW 7 11 30.18 1022 10 16 N/A
5:35 am 05:35 Clear 39 4 34 1.1 82 82 WNW 9 15 30.18 1022 10 16 N/A
5:55 am 05:55 Clear 40 4.3 34 1.1 80 80 WNW 7 11 30.18 1022 10 16 N/A
6:15 am 06:15 Clear 39 3.9 34 1 82 82 NW 9 15 30.18 1022 10 16 N/A
6:35 am 06:35 Sunny 39 3.7 34 1 83 83 NW 8 13 30.21 1023 10 16 N/A
6:55 am 06:55 Sunny 39 3.7 34 1 83 83 NW 7 11 30.21 1023 10 16 N/A
7:15 am 07:15 Sunny 39 4.1 34 1.3 82 82 NW 7 11 30.18 1022 10 16 N/A
7:35 am 07:35 Sunny 41 5 35 1.8 80 80 NW 7 11 30.21 1023 10 16 N/A
7:55 am 07:55 Sunny 43 5.9 36 2 76 76 NW 9 15 30.21 1023 10 16 N/A
8:15 am 08:15 Sunny 44 6.8 37 2.5 74 74 NW 10 17 30.21 1023 10 16 N/A
8:35 am 08:35 Sunny 47 8.1 37 2.8 70 70 NNW 12 19 30.18 1022 10 16 N/A
8:55 am 08:55 Sunny 48 9.1 38 3.5 68 68 NNW 12 19 30.18 1022 10 16 N/A
9:15 am 09:15 Sunny 50 10.2 39 4 66 66 NNW 10 17 30.18 1022 10 16 N/A
9:35 am 09:35 Sunny 52 11.3 40 4.4 63 63 NW 8 13 30.15 1021 10 16 N/A
9:55 am 09:55 Sunny 55 12.5 41 5.2 61 61 NW 8 13 30.15 1021 10 16 N/A
10:15 am 10:15 Sunny 56 13.6 40 4.5 54 54 NNW 12 19 30.15 1021 10 16 N/A
10:35 am 10:35 Sunny 58 14.4 40 4.7 52 52 N 10 17 30.12 1020 10 16 N/A
10:55 am 10:55 Sunny 59 15.1 40 4.2 48 48 NNW 10 17 30.12 1020 10 16 N/A
11:15 am 11:15 Sunny 60 15.8 41 4.8 48 48 NNW 9 15 30.15 1021 10 16 N/A
11:35 am 11:35 Sunny 61 16.1 37 2.8 41 41 NW 12 19 30.12 1020 10 16 N/A
11:55 am 11:55 Partly Cloudy 62 16.8 35 1.4 36 36 N 9 15 30.12 1020 10 16 N/A
12:15 pm 12:15 Partly Cloudy 63 17.2 32 0.1 32 32 N 12 19 30.12 1020 10 16 N/A
12:35 pm 12:35 Sunny 63 17.4 33 0.6 32 32 NNW 13 20 30.12 1020 10 16 N/A
12:55 pm 12:55 Sunny 64 17.7 34 1.1 33 33 N 12 19 30.09 1019 10 16 N/A
1:15 pm 13:15 Partly Cloudy 64 17.6 32 undefined 31 31 N 14 22 30.06 1018 10 16 N/A
1:35 pm 13:35 Partly Cloudy 64 17.8 32 -0.2 30 30 N 10 17 30.06 1018 10 16 N/A
1:55 pm 13:55 Sunny 65 18.2 33 0.7 31 31 N 15 24 30.06 1018 10 16 N/A
2:15 pm 14:15 Partly Cloudy 65 18.4 34 1 31 31 NNW 14 22 30.06 1018 10 16 N/A
2:35 pm 14:35 Partly Cloudy 65 18.2 32 0.1 30 30 N 10 17 30.06 1018 10 16 N/A
2:55 pm 14:55 Sunny 65 18.4 34 1 31 31 N 12 19 30.06 1018 10 16 N/A
3:15 pm 15:15 Sunny 66 18.7 33 0.7 30 30 N 10 17 30.06 1018 10 16 N/A
3:35 pm 15:35 Sunny 66 18.9 34 1.3 31 31 N 10 17 30.06 1018 10 16 N/A
3:55 pm 15:55 Sunny 66 18.9 33 0.5 29 29 N 10 17 30.06 1018 10 16 N/A
4:15 pm 16:15 Sunny 66 19.1 33 0.7 29 29 N 7 11 30.06 1018 10 16 N/A
4:35 pm 16:35 Sunny 67 19.2 33 0.7 29 29 N 10 17 30.06 1018 10 16 N/A
4:55 pm 16:55 Sunny 67 19.3 34 1 30 30 N 14 22 30.06 1018 10 16 N/A
5:15 pm 17:15 Sunny 67 19.3 34 0.9 29 29 N 15 24 30.06 1018 10 16 N/A
5:35 pm 17:35 Sunny 67 19.4 33 0.3 28 28 NNW 8 13 30.06 1018 10 16 N/A
5:55 pm 17:55 Sunny 67 19.3 33 0.3 28 28 N 13 20 30.06 1018 10 16 N/A
6:15 pm 18:15 Sunny 67 19.4 33 0.5 28 28 NNW 13 20 30.06 1018 10 16 N/A
6:35 pm 18:35 Sunny 67 19.2 33 0.5 29 29 N 12 19 30.06 1018 10 16 N/A
6:55 pm 18:55 Sunny 66 19.1 33 0.5 29 29 N 10 17 30.06 1018 10 16 N/A
7:15 pm 19:15 Sunny 66 18.7 33 0.4 29 29 N 7 11 30.03 1017 10 16 N/A
7:35 pm 19:35 Sunny 65 18.4 33 0.7 31 31 NNE 9 15 30.03 1017 10 16 N/A
7:55 pm 19:55 Sunny 63 17.1 35 1.7 36 36 N 7 11 30.03 1017 10 16 N/A
8:15 pm 20:15 Sunny 59 15.2 38 3.5 46 46 NNE 6 9 30.06 1018 10 16 N/A
8:35 pm 20:35 Sunny 57 14.1 37 2.9 47 47 NNE 6 9 30.06 1018 10 16 N/A
8:55 pm 20:55 Clear 56 13.2 37 3 50 50 NE 3 6 30.09 1019 10 16 N/A
9:15 pm 21:15 Clear 56 13.1 37 2.7 50 50 NE 3 6 30.09 1019 10 16 N/A
9:35 pm 21:35 Clear 55 12.6 37 3 52 52 ENE 3 6 30.12 1020 10 16 N/A
9:55 pm 21:55 Clear 53 11.4 37 3 57 57 ENE 3 6 30.12 1020 10 16 N/A
10:15 pm 22:15 Clear 49 9.7 37 2.5 61 61 E 6 9 30.15 1021 10 16 N/A
10:35 pm 22:35 Clear 52 11 36 2.1 55 55 N N/A 30.12 1020 10 16 N/A
10:55 pm 22:55 Clear 53 11.6 36 2 52 52 N N/A 30.12 1020 10 16 N/A
11:15 pm 23:15 Clear 51 10.5 37 2.8 59 59 N N/A 30.12 1020 10 16 N/A
11:35 pm 23:35 Clear 49 9.7 37 3 63 63 N N/A 30.15 1021 10 16 N/A
11:55 pm 23:55 Clear 48 8.8 37 3 67 67 N N/A 30.15 1021 10 16 N/A

Powered by AerisWeather